sat.trackr.live / text

‹ back to catalog

YAOGAN-26

NORAD 40362 · 2014-088A

PAYLOAD ACTIVE UNKNOWN

§ Identity

Operator
Country
PRC
Launch date
2014-12-27
Launch site
TAISC
Launch vehicle
Mass (kg)
RCS (m²)
4.77

Purposes: earth_obs

External: N2YO · Heavens-Above · Gunter

§ Orbital elements

Epoch: 2026-05-25T04:02:50.457984Z

Period
93.12 min
Inclination
97.0648°
Eccentricity
0.0006557
Mean motion
15.46309336 rev/d
Perigee alt
423.1 km
Apogee alt
432.0 km
Semi-major
6,805.7 km
B*
4.6430e-4
RAAN
145.9347°
Arg perigee
118.1111°
Mean anomaly
242.0802°
Rev number
63,414

§ Raw data

YAOGAN-261 40362U 14088A   26145.16863956  .00022856  00000+0  46430-3 0  99902 40362  97.0648 145.9347 0006557 118.1111 242.0802 15.46309336634147

JSON: /api/v1/satellites/40362 · /tle

For live sub-satellite position, see the globe view (requires WebGL).

§ Visibility from observer

Set your observer location to see the next 7 days of passes ≥ 10°. The values pass through the URL so the page stays shareable.

No JS? Fill the form by hand. The geolocation button needs JavaScript.